www.pogodaiklimat.ru

Погода и климат >> Архив погоды >> Китай >> Шаньси >> Хэцюй


ПОГОДА в Хэцюе

  • Прогноз погоды в Хэцюе
  • Монитор погоды в Хэцюе

АРХИВ ПОГОДЫ в Хэцюе

Время (UTC), дата Ветер
(напр.,м/с)
 
Видим.   Явления Облачность Т
(С)
Тd
(С)
f
(%)
Тe
(С)
Тes
(С)
Комфортность P
(гПа)
Po
(гПа)
Тmin
(С)
Tmax
(С)
R
(мм)
R24
(мм)
S
(см)
03 11.09 В 2 22 км слаб. дождь 10/10
[]
+16.4 +15.4 94 +16 +16 1015.7 917.6
06 11.09 ЮВ 3 30 км {дождь} 9/9 1000 м
[]
+17.6 +15.6 88 +18 +19 1013.6 898.1 +15.1 1
09 11.09 З 3 30 км 10/10 1000 м
[]
+18.5 +13.8 74 +19 +19 1012.9 915.7
12 11.09 Ю 2 30 км 10/10 1000 м
[]
+17.3 +14.9 86 +18 +18 1013.9 898.1
15 11.09 Ю 2 30 км н/о +16.8 +14.4 86 +17 +17 1014.5 916.6
18 11.09 Ю 1 30 км ?/? +16.5 +14.3 87 +17 +17 1013.5 897.9 +18.6
21 11.09 В 1 30 км н/о +16.6 +15.0 90 +17 +17 1012.1 914.4
00 12.09 Ю 2 30 км 10/10
[]
+16.4 +15.4 94 +16 +16 1012.6 897.1
03 12.09 СЗ 1 18 км в посл. час дождь 10/10
[]
+17.6 +16.8 95 +19 +19 1012.5 915.0
06 12.09 Ю 2 15 км слаб. дождь 10/10
[]
+18.3 +17.7 96 +19 +19 1009.4 894.4 +16.2 0.1
09 12.09 Ю 1 3100 м дождь 10/10
[]
+17.6 +17.4 99 +19 +19 1009.1 912.0
12 12.09 З 2 1100 м дождь 10/10
[]
+17.7 +17.5 99 +18 +18 1010.5 895.3 26
15 12.09 С 5 11 км дождь н/о +15.1 +14.9 99 +14 +14 1013.2 914.9
18 12.09 С 1 24 км слаб. дождь ?/? +14.2 +14.0 99 +14 +14 1014.6 898.6 +18.5 10
21 12.09 С 2 30 км н/о +13.5 +12.7 95 +13 +13 1016.5 917.3
00 13.09 СЗ 2 30 км 4/4
[]
+14.4 +12.1 86 +14 +15 1017.9 901.5 10
03 13.09 С 4 25 км 8/8
[]
+17.1 +10.2 64 +17 +18 1019.3 921.0
06 13.09 ЮЗ 2 30 км 9/9 1000 м
[]
+19.6 +9.8 53 +21 +22 комфорт 1017.4 901.3 +12.3
09 13.09 З 1 30 км 9/9 1000 м
[]
+19.7 +7.4 45 +22 +22 комфорт 1017.5 920.2
12 13.09 ЮВ 2 30 км 9/9 1000 м
[]
+15.7 +10.9 73 +16 +16 1019.2 902.2
15 13.09 ЮВ 2 19 км н/о +14.1 +12.5 90 +14 +14 1019.6 920.3
18 13.09 В 1 20 км ?/? +12.0 +11.1 94 +12 +12 1020.1 903.3 +20.4
21 13.09 В 1 11 км н/о +9.9 +9.8 99 +9 +9 1020.3 919.6
00 14.09 ЮЗ 1 14 км 6/6
[]
+11.5 +11.3 99 +11 +12 1021.5 903.7
03 14.09 Ю 2 30 км 9/9
[]
+17.0 +11.5 70 +17 +19 1020.5 922.1
06 14.09 СВ 2 30 км 6/6
[]
+21.1 +1.4 27 +21 +26 комфорт 1017.6 901.4 +8.3
09 14.09 Ю 2 30 км 8/8
[]
+20.8 +4.0 33 +22 +23 комфорт 1017.2 920.3
12 14.09 В 2 30 км 3/3
[]
+15.4 +7.9 61 +15 +15 1018.5 901.0
15 14.09 Ю 4 30 км н/о +14.7 +10.1 74 +14 +14 1017.8 918.9
18 14.09 Ю 3 27 км ?/? +12.6 +11.3 92 +11 +11 1018.3 902.1 +22.4
21 14.09 Ю 3 25 км н/о +12.7 +11.4 92 +11 +11 1017.4 917.9
00 15.09 Ю 2 30 км 9/9 1000 м
[]
+13.6 +11.0 84 +13 +13 1018.5 901.4
03 15.09 Ю 4 28 км 9/9
[]
+16.9 +13.2 79 +16 +17 1018.3 920.1
06 15.09 Ю 4 27 км 9/9
[]
+20.1 +13.3 65 +22 +23 комфорт 1016.1 900.0 +12.4
09 15.09 ЮЗ 1 30 км 4/4 600 м
[]
+21.6 +11.6 53 +24 +25 комфорт 1015.2 918.7
12 15.09 В 1 27 км 1/1
[]
+14.4 +11.6 83 +15 +15 1017.6 900.4
15 15.09 В 1 18 км н/о +12.1 +11.0 93 +12 +12 1018.3 918.5
18 15.09 В 3 18 км ?/? +10.6 +10.0 96 +8 +8 1018.2 901.5 +21.6
21 15.09 В 1 6000 м дымка н/о +8.1 +8.0 99 +7 +7 1018.5 917.3
00 16.09 штиль 0 19 км 3/3
[]
+11.9 +11.6 98 +11 +13 1020.5 902.7
03 16.09 ЮЗ 2 27 км 3/3
[]
+19.0 +11.6 62 +20 +28 1019.2 921.5
06 16.09 ЮВ 1 30 км 3/3 600 м
[]
+23.7 +4.6 29 +23 +33 комфорт 1016.1 900.3 +7.3
09 16.09 В 3 30 км 6/6 600 м
[]
+23.2 +1.5 24 +22 +23 комфорт 1015.4 919.4
12 16.09 В 2 17 км 9/9 1000 м
[]
+16.1 +7.1 55 +16 +16 1016.4 899.4
15 16.09 Ю 3 30 км н/о +13.3 +6.4 63 +12 +12 1017.1 917.8
18 16.09 В 1 30 км ?/? +12.4 +8.3 76 +12 +12 1017.0 901.4 +24.8
21 16.09 В 2 30 км н/о +12.0 +9.4 84 +11 +11 1017.6 917.8
00 17.09 Ю 2 30 км 9/9 1000 м
[]
+13.3 +10.8 85 +13 +13 1020.7 903.4
03 17.09 ЮВ 3 30 км 9/9
[]
+20.5 +11.4 56 +23 +24 комфорт 1020.5 923.2
06 17.09 З 2 30 км 9/9 600 м
[]
+24.9 +7.5 33 +25 +26 комфорт 1018.3 902.8 +11.4
09 17.09 Ю 3 30 км 4/4 600 м
[]
+22.4 +6.6 36 +23 +24 комфорт 1019.4 922.8
12 17.09 Ю 2 30 км 1/1 1000 м
[]
+16.6 +8.8 60 +17 +17 1022.4 905.0
15 17.09 В 2 30 км н/о +13.2 +9.1 76 +13 +13 1023.0 923.1
18 17.09 ЮВ 1 30 км ?/? +9.6 +6.3 80 +9 +9 1024.2 907.5 +25.6
21 17.09 В 2 30 км н/о +7.2 +5.5 89 +5 +5 1026.3 924.0
00 18.09 В 3 30 км 5/5
[]
+13.6 +2.8 48 +13 +13 1027.6 909.7

 

Местоположение метеостанции Хэцюй (Шаньси, Китай): широта 39.38 долгота 111.15 высота над уровнем моря 861 м.

В архиве по умолчанию представлена погода в Хэцюе за последнюю неделю. Архивные данные за месяц целиком и за предыдущие месяцы, начиная с января 2011 года, Вы можете получить, выбрав интересующий диапазон дат из раскрывающегося списка и нажав кнопку "Ввод!".


*Определитесь, кто Вы:
робот инопланетянин человек

Внимание! Время в таблицах - всемирное. Для получения местного времени необходимо прибавить поправку, которая равна 8 ч.

Смотрите также архив погоды в соседних городах и на ближайших метеорологических станциях:

Погода в Дуншэне (Внутренняя Монголия, Китай) (112 км)
Погода в Юаньпине (Шаньси, Китай) (151 км)
Погода в Хух-Хото (Внутренняя Монголия, Китай) (166 км)
Погода в Юйлине (Гуанси-Чжуанский автономный район, Китай) (179 км)
Погода в Датуне (Шаньси, Китай) (203 км)
Погода на Утайшане (Шаньси, Китай) (209 км)
Погода в Лиши (Шаньси, Китай) (209 км)
Погода в Тайюанье (Шаньси, Китай) (216 км)
Погода в Цзинине (Шаньдун, Китай) (245 км)
Погода в Дархан-Мумингане (Внутренняя Монголия, Китай) (265 км)

Пояснения к столбцам:

Ветер - указаны скорость ветра в м/с - средняя за 10 мин, порывы в срок и между сроками (в фигурных скобках) и направление, откуда дует ветер: С - северный, СВ - северо-восточный, В - восточный, ЮВ - юго-восточный, Ю - южный, ЮЗ - юго-западный, З - западный, СЗ - северо-западный.
Видимость - горизонтальная дальность видимости в метрах или километрах. При видимости от 1 до 10 км при отсутствии осадков обычно наблюдается дымка, при ухудшении видимости до 1 км и менее - туман. В сухую погоду видимость может ухудшаться дымом, пылью или мглою.
Явления - указаны атмосферные явления, наблюдавшиеся в срок или в последний час перед сроком; фигурными скобками обозначены явления, наблюдавшиеся между сроками (за 1-3 часа до срока); квадратными скобками обозначены град или гололедные отложения с указанием их диаметра в мм.
Облачность - указаны через наклонную черту общая и нижняя облачность в баллах и высота нижней границы облаков в метрах; квадратными скобками обозначены формы облаков: Ci - перистые, Cs - перисто-слоистые, Cc - перисто-кучевые, Ac - высококучевые, As - высокослоистые, Sc - слоисто-кучевые, Ns - слоисто-дождевые, Cu - кучевые, Cb - кучево-дождевые. Подробнее классификацию облаков см. в Атласе облаков (PDF).
T - Температура воздуха - температура, измеренная на высоте 2 м над землей.
Td - Температура точки росы - температура, при понижении до которой содержащийся в воздухе водяной пар достигнет насыщения.
f - Относительная влажность воздуха - влажноcть воздуха, измеренная на высоте 2 м над землей.
Te - Эффективная температура - температура, которую ощущает одетый по сезону человек в тени. Характеристика душности погоды. При расчете учитывается влияние влажности воздуха и скорости ветра на теплоощущения человека.
Tes - Эффективная температура на солнце - температура, которую ощущает человек, с поправкой на солнечный нагрев. Характеристика знойности погоды. Зависит от высоты солнца над горизонтом, облачности и скорости ветра. Ночью, в пасмурную погоду, а также при ветре 12 м/с и более поправка равна нулю.
P - Атмосферное давление - приведенное к уровню моря атмосферное давление.
Po - Атмосферное давление - измеренное на уровне метеостанции атмосферное давление.
Tmin - Минимальная температура - минимум температуры воздуха на высоте 2 м над землей.
Tmax - Максимальная температура - максимум температуры воздуха на высоте 2 м над землей.
R - Количество осадков - Количество выпавших осадков за период времени, мм. При наведении курсора мыши на число - период времени, за который выпало указанное количество осадков.
R24 - Количество осадков - Количество выпавших осадков за 24 часа, мм.
S - Снежный покров - Высота снежного покрова, см. При наведении курсора мыши на число - состояние снежного покрова и степень покрытия местности в баллах.